VK1ET-13 Weather Reports


time (UTC)temp
F
wind
direction
speed
knots
gust
knots
rain 1hr
in
rain 24hr
in
rain mn
in
humidity
%
barometer
mb
20260903033043 61 294 8.7 13.9 0.00 0.00 0.00 51 1012.6
20260903032025 61 275 6.1 13.0 0.00 0.00 0.00 53 1012.5
20260903031035 61 294 6.1 13.0 0.00 0.00 0.00 53 1012.4
20260903030023 61 298 7.8 14.8 0.00 0.00 0.00 52 1012.5
20260903025038 61 288 8.7 17.4 0.00 0.00 0.00 53 1012.5
20260903024019 60 277 8.7 15.6 0.00 0.00 0.00 54 1012.3
20260903023026 61 300 8.7 14.8 0.00 0.00 0.00 53 1012.4
20260903021520 61 285 8.7 11.3 0.00 0.00 0.00 53 1012.2
20260903021023 61 293 8.7 17.4 0.00 0.00 0.00 53 1012.2
20260903020030 61 312 8.7 18.2 0.00 0.00 0.00 53 1012.3
20260903015037 60 297 7.0 13.0 0.00 0.00 0.00 54 1012.2
20260903014021 61 302 8.7 20.0 0.00 0.00 0.00 52 1012.3
20260903013028 61 306 8.7 16.5 0.00 0.00 0.00 51 1012.3
20260903012033 61 300 8.7 14.8 0.00 0.00 0.00 52 1012.2
20260903011020 61 271 6.1 11.3 0.00 0.00 0.00 53 1012.2
20260903010033 61 280 5.2 13.0 0.00 0.00 0.00 53 1012.0
20260903005033 61 301 8.7 14.8 0.00 0.00 0.00 53 1011.9
20260903004019 61 287 7.8 14.8 0.00 0.00 0.00 53 1012.0
20260903003031 61 272 7.8 13.9 0.00 0.00 0.00 54 1011.9
20260903002029 60 261 5.2 12.2 0.00 0.00 0.00 56 1012.0
20260903001033 60 265 7.8 13.0 0.00 0.00 0.00 56 1011.9
20260903000018 60 269 6.1 10.4 0.00 0.00 0.00 59 1011.9
20260902235025 60 266 7.8 16.5 0.00 0.00 0.00 60 1011.8
20260902234031 60 257 8.7 14.8 0.00 0.00 0.00 58 1011.6
20260902233016 60 235 7.0 13.9 0.00 0.00 0.00 62 1011.6
20260902232035 60 238 7.8 15.6 0.00 0.00 0.00 63 1011.4
20260902231028 60 239 7.8 13.0 0.00 0.00 0.00 64 1011.2
20260902230034 57 247 8.7 18.2 0.00 0.00 0.00 64 1011.2
20260902225018 57 243 9.6 13.9 0.00 0.00 0.00 65 1011.2
20260902224017 58 253 8.7 17.4 0.00 0.00 0.00 67 1010.8
20260902222017 58 259 7.0 13.0 0.00 0.00 0.00 69 1010.7
20260902221021 58 250 7.0 13.0 0.00 0.00 0.00 72 1010.7
20260902220027 57 261 7.0 13.9 0.00 0.00 0.00 74 1010.6
20260902215037 57 255 7.0 14.8 0.00 0.00 0.00 74 1010.4
20260902214022 57 255 7.8 13.9 0.00 0.00 0.00 78 1010.2
20260902213035 57 253 7.0 11.3 0.00 0.00 0.00 81 1009.7
20260902212041 55 257 4.3 8.7 0.00 0.00 0.00 87 1009.8
20260902211019 55 282 4.3 7.0 0.00 0.00 0.00 89 1009.9
20260902210027 55 320 3.5 6.1 0.00 0.00 0.00 91 1009.8
20260902204029 54 324 1.7 3.5 0.00 0.00 0.00 95 1009.5
20260902203035 53 14 0.9 3.5 0.00 0.00 0.00 96 1009.5
20260902202036 53 293 0.9 1.7 0.00 0.00 0.00 96 1009.4
20260902201031 53 304 0.9 2.6 0.00 0.00 0.00 96 1009.4
20260902200032 53 358 0.9 2.6 0.00 0.00 0.00 96 1009.3
20260902195021 53 23 0.0 1.7 0.00 0.00 0.00 96 1009.1
20260902194018 53 354 0.9 2.6 0.00 0.00 0.00 96 1008.9
20260902193026 53 326 0.9 3.5 0.00 0.00 0.00 96 1008.9
20260902192033 53 307 1.7 5.2 0.00 0.00 0.00 96 1009.0
20260902191021 53 355 1.7 4.3 0.00 0.00 0.00 97 1008.9
20260902190030 53 338 1.7 3.5 0.00 0.00 0.00 96 1008.7
20260902185017 53 4 1.7 4.3 0.00 0.00 0.00 96 1008.4
20260902184032 53 8 3.5 6.1 0.00 0.00 0.00 96 1008.2
20260902183032 53 357 1.7 3.5 0.00 0.00 0.00 96 1008.6
20260902182020 54 359 1.7 3.5 0.00 0.00 0.00 96 1008.5
20260902181028 54 3 1.7 3.5 0.00 0.00 0.00 95 1008.5
20260902180036 54 7 2.6 5.2 0.00 0.00 0.00 95 1008.9
20260902175027 54 351 2.6 5.2 0.00 0.00 0.00 95 1008.9
20260902174039 54 257 1.7 3.5 0.00 0.00 0.00 96 1008.9
20260902173020 54 302 0.9 3.5 0.00 0.00 0.00 96 1008.7
20260902172028 54 0 0.9 2.6 0.00 0.00 0.00 96 1008.9
20260902171016 54 8 1.7 4.3 0.00 0.00 0.00 96 1009.0
20260902170031 54 2 1.7 4.3 0.00 0.00 0.00 96 1009.1
20260902165033 54 7 2.6 5.2 0.00 0.00 0.00 96 1009.7
20260902164020 54 1 1.7 5.2 0.00 0.00 0.00 95 1010.1
20260902163030 54 354 1.7 4.3 0.00 0.00 0.00 95 1010.3
20260902162017 54 5 2.6 5.2 0.00 0.00 0.00 95 1010.4
20260902161032 54 7 1.7 3.5 0.00 0.00 0.00 95 1010.4
20260902160033 54 335 1.7 3.5 0.00 0.00 0.00 94 1010.9
20260902155022 54 12 2.6 4.3 0.00 0.00 0.00 94 1010.7
20260902154029 54 13 1.7 3.5 0.00 0.00 0.00 94 1011.2
20260902153017 54 350 2.6 5.2 0.00 0.00 0.00 94 1011.4
20260902152024 54 360 0.9 3.5 0.00 0.00 0.00 94 1011.1
20260902151030 54 356 0.9 3.5 0.00 0.00 0.00 94 1010.7
20260902150016 55 325 0.9 1.7 0.00 0.00 0.00 93 1011.0
20260902145023 55 8 0.9 1.7 0.00 0.00 0.00 93 1010.9
20260902144039 55 335 0.9 2.6 0.00 0.00 0.00 93 1011.4
20260902143036 55 336 0.9 2.6 0.00 0.00 0.00 92 1011.4
20260902142022 55 27 0.9 3.5 0.00 0.00 0.00 92 1011.9
20260902141028 55 356 0.9 2.6 0.00 0.00 0.00 91 1012.2
20260902140033 55 336 0.9 3.5 0.00 0.00 0.00 91 1012.2
20260902135019 56 352 1.7 4.3 0.00 0.00 0.00 89 1012.6
20260902134024 56 323 1.7 4.3 0.00 0.00 0.00 88 1012.9
20260902133030 57 286 3.5 7.0 0.00 0.00 0.00 86 1013.1
20260902132036 57 317 4.3 11.3 0.00 0.00 0.00 85 1013.3
20260902131034 57 325 3.5 7.0 0.00 0.00 0.00 86 1013.2
20260902130027 57 328 2.6 5.2 0.00 0.00 0.00 84 1013.2
20260902125021 58 305 3.5 5.2 0.00 0.00 0.00 81 1013.2
20260902123522 56 309 2.6 4.3 0.00 0.00 0.00 83 1013.0
20260902123036 55 297 0.9 2.6 0.00 0.00 0.00 85 1013.0
20260902120530 56 67 0.0 1.7 0.00 0.00 0.00 83 1013.2
20260902115531 57 151 0.0 0.9 0.00 0.00 0.00 82 1013.0
20260902114530 57 340 0.9 1.7 0.00 0.00 0.00 81 1013.1
20260902113519 57 138 0.9 0.9 0.00 0.00 0.00 81 1013.3
20260902113501 57 214 0.0 1.7 0.00 0.00 0.00 81 1013.3
20260902101048 63 295 4.3 6.1 0.00 0.00 0.00 75 1013.8
20260902100058 63 311 2.6 4.3 0.00 0.00 0.00 74 1013.5